Gastonia, NC

12:55 AM EDT on May 23, 2017 (GMT -0400)
Gastonia Municipal

Weather History for KAKH - March, 2014

Change the Weather History Date:

Tuesday, March 25, 2014

  Actual Average (KCLT) Record (KCLT)
Temperature  
Mean Temperature 42 °F -  
Max Temperature 48 °F 62 °F 90 °F (1929)
Min Temperature 35 °F 41 °F 22 °F (1940)
Degree Days  
Heating Degree Days 23    
Moisture  
Dew Point 32 °F    
Average Humidity 73    
Maximum Humidity 89    
Minimum Humidity 35    
Precipitation  
Precipitation 0.09 in - - ()
Sea Level Pressure  
Sea Level Pressure 29.90 in    
Wind  
Wind Speed 4 mph (WNW)    
Max Wind Speed 12 mph    
Max Gust Speed 25 mph    
Visibility 8 miles    
Events Rain    
Averages and records for this station are not official NWS values.
T = Trace of Precipitation, MM = Missing Value Source: NWS Daily Summary

Daily Weather History Graph

Daily Weather History Graph

Search for Another Location

Airport or City:

Trip Planner

Search our weather history database for the weather conditions in past years. The results will help you decide how hot, cold, wet, or windy it might be!

Date:

Astronomy

Mar. 25, 2014 Rise Set
Actual Time 7:21 AM EDT 7:40 PM EDT
Civil Twilight 6:55 AM EDT 8:05 PM EDT
Nautical Twilight 6:26 AM EDT 8:35 PM EDT
Astronomical Twilight 5:55 AM EDT 9:05 PM EDT
Moon 3:30 AM EDT (3/25) 2:20 PM EDT (3/25)
Length of Visible Light 13h 09m
Length of Day
12h 19m
Waning Crescent, 32% of the Moon is Illuminated
Mar 25
Waning Crescent
Mar 30
New
Apr 7
First Quarter
Apr 15
Full
Apr 22
Last Quarter

Hourly Weather History & Observations

Time (EDT) Temp. Windchill Dew Point Humidity Pressure Visibility Wind Dir Wind Speed Gust Speed Precip Events Conditions
12:54 AM 43.0 °F - 25.0 °F 49% 30.04 in 10.0 mi Calm Calm - N/A   Partly Cloudy
1:54 AM 43.0 °F 38.8 °F 26.1 °F 51% 30.02 in 10.0 mi SSE 6.9 mph - N/A   Clear
2:54 AM 42.1 °F 38.4 °F 30.0 °F 62% 29.98 in 10.0 mi South 5.8 mph - N/A   Clear
3:54 AM 42.1 °F 39.2 °F 32.0 °F 67% 29.96 in 10.0 mi Variable 4.6 mph - N/A   Clear
4:54 AM 41.0 °F 37.1 °F 33.1 °F 73% 29.93 in 10.0 mi South 5.8 mph - N/A   Clear
5:54 AM 41.0 °F 38.0 °F 33.1 °F 73% 29.90 in 10.0 mi SSE 4.6 mph - N/A   Mostly Cloudy
6:54 AM 41.0 °F 38.0 °F 33.1 °F 73% 29.93 in 10.0 mi WNW 4.6 mph - N/A   Overcast
7:54 AM 41.0 °F 39.0 °F 34.0 °F 76% 29.95 in 10.0 mi Variable 3.5 mph - 0.00 in Rain Light Rain
8:33 AM 39.9 °F 37.8 °F 34.0 °F 79% 29.92 in 5.0 mi SE 3.5 mph - 0.01 in Rain Light Rain
8:49 AM 39.2 °F - 35.6 °F 87% 29.94 in 9.0 mi Calm Calm - 0.01 in Rain Light Rain
8:54 AM 39.9 °F - 36.0 °F 86% 29.95 in 7.0 mi Calm Calm - 0.01 in Rain Light Rain
9:09 AM 39.9 °F - 36.0 °F 86% 29.93 in 4.0 mi Calm Calm - 0.01 in Rain Light Rain
9:54 AM 39.0 °F 36.8 °F 35.1 °F 86% 29.93 in 8.0 mi South 3.5 mph - 0.03 in Rain Light Rain
10:18 AM 39.0 °F - 36.0 °F 89% 29.91 in 8.0 mi Calm Calm - 0.00 in   Overcast
10:22 AM 39.0 °F - 36.0 °F 89% 29.91 in 8.0 mi Calm Calm - 0.00 in   Overcast
10:31 AM 39.0 °F 36.8 °F 36.0 °F 89% 29.91 in 8.0 mi South 3.5 mph - 0.00 in   Overcast
10:54 AM 39.0 °F 36.8 °F 36.0 °F 89% 29.91 in 8.0 mi East 3.5 mph - 0.00 in   Overcast
11:08 AM 39.9 °F 37.8 °F 37.0 °F 89% 29.88 in 8.0 mi Variable 3.5 mph - N/A   Overcast
11:24 AM 39.9 °F 37.8 °F 36.0 °F 86% 29.87 in 8.0 mi East 3.5 mph - N/A   Overcast
11:54 AM 39.9 °F - 36.0 °F 86% 29.88 in 10.0 mi Calm Calm - N/A   Overcast
12:54 PM 41.0 °F 38.0 °F 37.0 °F 86% 29.87 in 8.0 mi North 4.6 mph - N/A   Overcast
1:54 PM 43.0 °F 39.5 °F 37.0 °F 80% 29.85 in 8.0 mi WNW 5.8 mph - 0.00 in   Overcast
2:23 PM 44.1 °F 39.0 °F 37.9 °F 79% 29.82 in 8.0 mi WNW 9.2 mph - N/A   Overcast
2:54 PM 44.1 °F 40.1 °F 37.0 °F 76% 29.82 in 9.0 mi WNW 6.9 mph - 0.00 in Rain Light Rain
3:16 PM 44.1 °F 40.1 °F 36.0 °F 73% 29.81 in 7.0 mi NW 6.9 mph - 0.00 in Rain Light Rain
3:20 PM 41.0 °F 34.7 °F 35.1 °F 79% 29.82 in 2.5 mi NNW 10.4 mph 23.0 mph 0.02 in Rain Rain
3:28 PM 39.0 °F 34.0 °F 34.0 °F 82% 29.82 in 1.8 mi NW 6.9 mph 23.0 mph 0.04 in Rain Light Rain
3:31 PM 39.9 °F 35.1 °F 34.0 °F 79% 29.82 in 4.0 mi Variable 6.9 mph - 0.04 in Rain Light Rain
3:52 PM 39.2 °F 32.5 °F 33.8 °F 81% 29.82 in 7.0 mi WNW 10.4 mph 25.3 mph 0.04 in Rain Light Rain
3:54 PM 39.0 °F 33.4 °F 34.0 °F 82% 29.83 in 6.0 mi NW 8.1 mph 25.3 mph 0.04 in Rain Light Rain
4:01 PM 39.0 °F 34.0 °F 34.0 °F 82% 29.81 in 5.0 mi Variable 6.9 mph - 0.01 in Rain Light Rain
4:13 PM 42.1 °F 38.4 °F 36.0 °F 79% 29.80 in 10.0 mi Variable 5.8 mph - 0.01 in Rain Light Rain
4:54 PM 48.0 °F - 28.9 °F 48% 29.81 in 10.0 mi WNW 11.5 mph 19.6 mph 0.01 in   Partly Cloudy
5:54 PM 46.0 °F 41.9 °F 19.9 °F 35% 29.84 in 10.0 mi WNW 8.1 mph 17.3 mph N/A   Mostly Cloudy
6:54 PM 43.0 °F 37.2 °F 21.9 °F 43% 29.90 in 10.0 mi NW 10.4 mph 24.2 mph N/A   Overcast
7:54 PM 39.9 °F 35.8 °F 21.0 °F 47% 29.94 in 10.0 mi Variable 5.8 mph - N/A   Clear
8:54 PM 37.9 °F 32.1 °F 21.0 °F 51% 29.97 in 10.0 mi NW 8.1 mph - N/A   Clear
9:54 PM 36.0 °F 32.1 °F 21.9 °F 57% 30.01 in 10.0 mi Variable 4.6 mph - N/A   Clear
10:54 PM 36.0 °F - 21.9 °F 57% 30.04 in 10.0 mi North - - N/A   Clear
11:54 PM 35.1 °F 28.6 °F 21.0 °F 57% 30.06 in 10.0 mi WNW 8.1 mph 18.4 mph N/A   Clear